Air Quality Table

TIMESTAMP NO2 SO2 O3 PM10 PM2.5 CO TEMP HUM AIRPRES WS WD NO BENZENE
2022-11-26 10:00 36.01 µg/m3 0.52 µg/m3 38.13 µg/m3 8.62 µg/m3 6.92 µg/m3 0.22 mg/m3 15.52 °C 87.13 % 1,013.97 mbar 1.79 m/s 165.62 Deg 7.46 µg/m3 0 µg/m3
2022-11-26 09:00 21.54 µg/m3 0.49 µg/m3 55.22 µg/m3 12.36 µg/m3 8.79 µg/m3 0.23 mg/m3 17.21 °C 84.46 % 1,013.81 mbar 2.59 m/s 188.42 Deg 5.14 µg/m3 0 µg/m3
2022-11-26 08:00 29.37 µg/m3 0.55 µg/m3 48.96 µg/m3 15.14 µg/m3 10.22 µg/m3 0.29 mg/m3 19.27 °C 77.46 % 1,013.97 mbar 1.57 m/s 136.03 Deg 9.91 µg/m3 0 µg/m3
2022-11-26 07:00 29.64 µg/m3 0.56 µg/m3 48.67 µg/m3 11.25 µg/m3 7.64 µg/m3 0.25 mg/m3 18.79 °C 77.02 % 1,015.08 mbar 1.02 m/s 171.4 Deg 5.45 µg/m3 0 µg/m3
2022-11-26 06:00 24.32 µg/m3 0.53 µg/m3 48.45 µg/m3 11.17 µg/m3 7.83 µg/m3 0.21 mg/m3 18.11 °C 78.08 % 1,015.15 mbar 0.81 m/s 173.23 Deg 2.57 µg/m3 0 µg/m3
2022-11-26 05:00 51.43 µg/m3 1.07 µg/m3 8.15 µg/m3 19.91 µg/m3 13.33 µg/m3 0.48 mg/m3 17.28 °C 77.38 % 1,016.01 mbar 0.19 m/s 217.75 Deg 30.31 µg/m3 0 µg/m3
2022-11-26 04:00 48.85 µg/m3 0.9 µg/m3 11.52 µg/m3 17.79 µg/m3 12.01 µg/m3 0.4 mg/m3 17.17 °C 75.98 % 1,017.00 mbar 0.31 m/s 234.26 Deg 17.67 µg/m3 0 µg/m3
2022-11-26 03:00 47.08 µg/m3 0.87 µg/m3 10.3 µg/m3 20.49 µg/m3 13.93 µg/m3 0.65 mg/m3 16.43 °C 77.23 % 1,018.12 mbar 0.53 m/s 231.02 Deg 11.67 µg/m3 0 µg/m3
2022-11-26 02:00 54.65 µg/m3 1.06 µg/m3 5.93 µg/m3 32.7 µg/m3 22.04 µg/m3 0.76 mg/m3 16.04 °C 77.26 % 1,018.46 mbar 0.6 m/s 229.6 Deg 36.87 µg/m3 0 µg/m3
2022-11-26 01:00 61.23 µg/m3 1.11 µg/m3 5.79 µg/m3 35.57 µg/m3 24.04 µg/m3 0.77 mg/m3 15.99 °C 76.42 % 1,018.74 mbar 0.59 m/s 231.78 Deg 32.03 µg/m3 0 µg/m3
2022-11-26 00:00 60.85 µg/m3 1.59 µg/m3 6.81 µg/m3 39.66 µg/m3 26.5 µg/m3 0.95 mg/m3 16.01 °C 76.88 % 1,019.41 mbar 0.65 m/s 230.2 Deg 65.19 µg/m3 0 µg/m3
2022-11-25 23:00 65.98 µg/m3 2.15 µg/m3 7.46 µg/m3 44.69 µg/m3 29.84 µg/m3 1.2 mg/m3 16.19 °C 76.33 % 1,019.89 mbar 0.62 m/s 233.2 Deg 111.73 µg/m3 0 µg/m3
2022-11-25 22:00 69.93 µg/m3 1.63 µg/m3 6.35 µg/m3 42.08 µg/m3 28.08 µg/m3 0.93 mg/m3 16.28 °C 75.11 % 1,020.35 mbar 0.51 m/s 241.02 Deg 78.89 µg/m3 0 µg/m3
2022-11-25 21:00 75.83 µg/m3 1.35 µg/m3 5.65 µg/m3 34.91 µg/m3 23.28 µg/m3 0.79 mg/m3 16.44 °C 74.05 % 1,020.53 mbar 0.68 m/s 231.28 Deg 54.01 µg/m3 0 µg/m3
2022-11-25 20:00 80.87 µg/m3 1.6 µg/m3 6.09 µg/m3 44.89 µg/m3 27.2 µg/m3 1 mg/m3 17 °C 71.75 % 1,020.23 mbar 0.68 m/s 227.3 Deg 75.41 µg/m3 0 µg/m3
2022-11-25 19:00 80.15 µg/m3 1.02 µg/m3 7.91 µg/m3 50.94 µg/m3 21.53 µg/m3 0.67 mg/m3 17.61 °C 68.38 % 1,020.12 mbar 0.8 m/s 219.88 Deg 35.77 µg/m3 0 µg/m3
2022-11-25 18:00 77.2 µg/m3 0.85 µg/m3 14.31 µg/m3 43.89 µg/m3 15.6 µg/m3 0.59 mg/m3 18.1 °C 65.42 % 1,020.16 mbar 0.83 m/s 269.98 Deg 28.22 µg/m3 0 µg/m3
2022-11-25 17:00 42.14 µg/m3 0.54 µg/m3 45.22 µg/m3 24.99 µg/m3 10.05 µg/m3 0.31 mg/m3 18.61 °C 62.15 % 1,019.94 mbar 1.41 m/s 307.28 Deg 11.72 µg/m3 0 µg/m3
2022-11-25 16:00 35.55 µg/m3 0.51 µg/m3 51.73 µg/m3 36.2 µg/m3 11.28 µg/m3 0.26 mg/m3 19.29 °C 59.65 % 1,019.98 mbar 1.56 m/s 314.03 Deg 13.78 µg/m3 0 µg/m3
2022-11-25 15:00 25.99 µg/m3 0.42 µg/m3 65.38 µg/m3 26.46 µg/m3 9.93 µg/m3 0.21 mg/m3 19.51 °C 57.73 % 1,019.72 mbar 1.76 m/s 314.05 Deg 9.55 µg/m3 0 µg/m3
2022-11-25 14:00 25.48 µg/m3 0.59 µg/m3 61.62 µg/m3 27.85 µg/m3 10.42 µg/m3 0.22 mg/m3 20.02 °C 54.33 % 1,020.30 mbar 1.77 m/s 295.3 Deg 14.01 µg/m3 0 µg/m3
2022-11-25 13:00 25.17 µg/m3 0.6 µg/m3 63.74 µg/m3 37.5 µg/m3 10.92 µg/m3 0.25 mg/m3 19.7 °C 57.28 % 1,020.72 mbar 1.74 m/s 314.02 Deg 10.76 µg/m3 0 µg/m3
2022-11-25 12:00 23.92 µg/m3 0.51 µg/m3 59.26 µg/m3 27.51 µg/m3 9.6 µg/m3 0.21 mg/m3 19.44 °C 57.7 % 1,020.99 mbar 1.98 m/s 294.17 Deg 9.46 µg/m3 0 µg/m3

It is to be noted that the data is provisional and subject to quality assurance procedures. For validated data kindly refer your request to contact.air@era.org.mt